Tracking 17884 objects as of 8-December-2016
HD Live streaming from Space Station
objects crossing your sky now

COSMOS 2251 DEB

Track COSMOS 2251 DEB now!
10-day predictions


NORAD ID: 35442
Int'l Code: 1993-036AKL
Perigee: 743.8 km
Apogee: 765.0 km
Inclination: 74.0 °
Period: 99.8 minutes
Semi major axis: 7125 km
RCS: 0.0032 m2 (small)
Launch date: June 16, 1993
Source: Commonwealth of Independent States (former USSR) (CIS)
Launch site: PLESETSK MISSILE AND SPACE COMPLEX (PKMTR)

Note: This is SATELLITE DEBRIS
Your satellite tracking list
Your tracking list is empty





NASA's NSSDC Master Catalog

Two Line Element Set (TLE):
1 35442U 93036AKL 16340.97412830 +.00000887 +00000-0 +27012-3 0  9995
2 35442 074.0407 173.8835 0014883 310.1343 205.0274 14.43417722395772
Source of the keplerian elements: AFSPC